Location: 10033 Water Well
(34.0865°N, 106.8959°W)
Time: 15:56:28
(UTC+00:00)

SL-4 R/B - Pass Details

Date: 13 January 2026
Orbit: 384 x 519 km, 51.6° (Epoch: 11 February)

Event Time Altitude Azimuth Distance (km) Brightness Sun altitude
Rises 00:53:51 0° 322° (NW) 2,637 5.7 -7.5°
Reaches altitude 10° 00:56:22 10° 336° (NNW) 1,735 4.6 -8.0°
Maximum altitude 00:59:41 25° 33° (NNE) 1,033 3.0 -8.6°
Enters shadow 01:02:42 11° 89° (E) 1,612 3.8 -9.2°
